Casa Grande, AZ

1:21 AM MST on February 10, 2016 (GMT -0700)
Casa Grande Municipal

Weather History for KCGZ - June, 2014

Change the Weather History Date:

Monday, June 16, 2014

  Actual Average Record
Temperature  
Mean Temperature 88 °F -  
Max Temperature 104 °F 99 °F 109 °F (2008)
Min Temperature 71 °F 67 °F 62 °F (2001)
Cooling Degree Days 22    
Growing Degree Days 38 (Base 50)    
Moisture  
Dew Point 30 °F    
Average Humidity 13    
Maximum Humidity 20    
Minimum Humidity 10    
Precipitation  
Precipitation 0.00 in - - ()
Sea Level Pressure  
Sea Level Pressure 29.80 in    
Wind  
Wind Speed 4 mph (West)    
Max Wind Speed 18 mph    
Max Gust Speed 25 mph    
Visibility 10 miles    
Events      
Averages and records for this station are not official NWS values.
T = Trace of Precipitation, MM = Missing Value Source: NWS Daily Summary

Daily Weather History Graph

Daily Weather History Graph

Search for Another Location

Airport or City:

Trip Planner

Search our weather history database for the weather conditions in past years. The results will help you decide how hot, cold, wet, or windy it might be!

Date:

Astronomy

Jun. 16, 2014 Rise Set
Actual Time 5:18 AM MST 7:37 PM MST
Civil Twilight 4:49 AM MST 8:06 PM MST
Nautical Twilight 4:14 AM MST 8:41 PM MST
Astronomical Twilight 3:36 AM MST 9:19 PM MST
Moon 10:44 PM MST (6/16) 9:15 AM MST (6/16)
Length of Visible Light 15h 16m
Length of Day
14h 19m
Waning Gibbous, 82% of the Moon is Illuminated
Jun 16
Waning Gibbous
Jun 19
Last Quarter
Jun 27
New
Jul 5
First Quarter
Jul 12
Full

Hourly Weather History & Observations

Time (MST) Temp. Dew Point Humidity Pressure Visibility Wind Dir Wind Speed Gust Speed Precip Events Conditions
12:15 AM 80.6 °F 26.6 °F 14% 29.78 in 10.0 mi SW 5.8 mph - N/A   Clear
12:35 AM 78.8 °F 24.8 °F 14% 29.78 in 10.0 mi SW 4.6 mph - N/A   Clear
12:55 AM 78.8 °F 24.8 °F 14% 29.78 in 10.0 mi SW 3.5 mph - N/A   Clear
1:15 AM 78.8 °F 21.2 °F 12% 29.79 in 10.0 mi Calm Calm - N/A   Clear
1:35 AM 75.2 °F 21.2 °F 13% 29.79 in 10.0 mi Calm Calm - N/A   Clear
1:55 AM 73.4 °F 19.4 °F 13% 29.79 in 10.0 mi Calm Calm - N/A   Clear
2:15 AM 73.4 °F 19.4 °F 13% 29.79 in 10.0 mi Calm Calm - N/A   Clear
2:35 AM 73.4 °F 19.4 °F 13% 29.80 in 10.0 mi Calm Calm - N/A   Clear
2:55 AM 73.4 °F 19.4 °F 13% 29.80 in 10.0 mi Calm Calm - N/A   Clear
3:15 AM 73.4 °F 19.4 °F 13% 29.79 in 10.0 mi Calm Calm - N/A   Clear
3:35 AM 75.2 °F 19.4 °F 12% 29.80 in 10.0 mi Calm Calm - N/A   Clear
3:55 AM 75.2 °F 19.4 °F 12% 29.80 in 10.0 mi West 4.6 mph - N/A   Clear
4:15 AM 73.4 °F 19.4 °F 13% 29.81 in 10.0 mi WSW 3.5 mph - N/A   Clear
4:35 AM 73.4 °F 19.4 °F 13% 29.81 in 10.0 mi Calm Calm - N/A   Clear
4:55 AM 73.4 °F 19.4 °F 13% 29.81 in 10.0 mi Calm Calm - N/A   Clear
5:15 AM 73.4 °F 19.4 °F 13% 29.81 in 10.0 mi Calm Calm - N/A   Clear
5:35 AM 73.4 °F 19.4 °F 13% 29.82 in 10.0 mi Calm Calm - N/A   Clear
5:55 AM 71.6 °F 19.4 °F 14% 29.82 in 10.0 mi Calm Calm - N/A   Clear
6:15 AM 73.4 °F 21.2 °F 14% 29.83 in 10.0 mi Calm Calm - N/A   Clear
6:35 AM 75.2 °F 24.8 °F 15% 29.83 in 10.0 mi Calm Calm - N/A   Clear
6:55 AM 78.8 °F 26.6 °F 15% 29.84 in 10.0 mi Calm Calm - N/A   Clear
7:15 AM 80.6 °F 26.6 °F 14% 29.84 in 10.0 mi Calm Calm - N/A   Clear
7:35 AM 82.4 °F 26.6 °F 13% 29.84 in 10.0 mi Calm Calm - N/A   Clear
7:55 AM 82.4 °F 26.6 °F 13% 29.85 in 10.0 mi Calm Calm - N/A   Clear
8:35 AM 87.8 °F 28.4 °F 12% 29.86 in 10.0 mi Calm Calm - N/A   Clear
8:55 AM 87.8 °F 30.2 °F 13% 29.86 in 10.0 mi Calm Calm - N/A   Clear
9:15 AM 91.4 °F 32.0 °F 12% 29.86 in 10.0 mi Calm Calm - N/A   Clear
9:35 AM 91.4 °F 33.8 °F 13% 29.86 in 10.0 mi Calm Calm - N/A   Clear
9:55 AM 91.4 °F 33.8 °F 13% 29.86 in 10.0 mi Calm Calm - N/A   Clear
10:15 AM 93.2 °F 33.8 °F 12% 29.86 in 10.0 mi WNW 5.8 mph - N/A   Clear
10:35 AM 93.2 °F 33.8 °F 12% 29.86 in 10.0 mi WNW 6.9 mph - N/A   Clear
10:55 AM 95.0 °F 33.8 °F 12% 29.86 in 10.0 mi Calm Calm - N/A   Clear
11:15 AM 96.8 °F 33.8 °F 11% 29.86 in 10.0 mi NW 6.9 mph - N/A   Clear
11:35 AM 96.8 °F 32.0 °F 10% 29.85 in 10.0 mi Calm Calm - N/A   Clear
11:55 AM 98.6 °F 33.8 °F 10% 29.85 in 10.0 mi WNW 6.9 mph - N/A   Clear
12:15 PM 98.6 °F 33.8 °F 10% 29.84 in 10.0 mi West 8.1 mph - N/A   Clear
12:35 PM 100.4 °F 35.6 °F 11% 29.84 in 10.0 mi WNW 13.8 mph 19.6 mph N/A   Clear
12:55 PM 100.4 °F 35.6 °F 11% 29.83 in 10.0 mi West 10.4 mph 16.1 mph N/A   Clear
1:35 PM 102.2 °F 35.6 °F 10% 29.81 in 10.0 mi West 12.7 mph 18.4 mph N/A   Clear
1:55 PM 102.2 °F 37.4 °F 11% 29.81 in 10.0 mi West 13.8 mph 24.2 mph N/A   Clear
2:15 PM 102.2 °F 35.6 °F 10% 29.81 in 10.0 mi West 13.8 mph 20.7 mph N/A   Clear
2:35 PM 102.2 °F 37.4 °F 11% 29.80 in 10.0 mi West 18.4 mph 25.3 mph N/A   Clear
2:55 PM 104.0 °F 37.4 °F 10% 29.79 in 10.0 mi WNW 16.1 mph 23.0 mph N/A   Clear
3:15 PM 102.2 °F 37.4 °F 11% 29.79 in 10.0 mi West 11.5 mph 23.0 mph N/A   Clear
3:35 PM 102.2 °F 37.4 °F 11% 29.77 in 10.0 mi West 15.0 mph 21.9 mph N/A   Clear
3:55 PM 104.0 °F 37.4 °F 10% 29.77 in 10.0 mi WSW 12.7 mph 20.7 mph N/A   Clear
4:15 PM 102.2 °F 37.4 °F 11% 29.77 in 10.0 mi West 15.0 mph 24.2 mph N/A   Clear
4:35 PM 102.2 °F 37.4 °F 11% 29.76 in 10.0 mi WSW 12.7 mph 23.0 mph N/A   Clear
4:55 PM 102.2 °F 39.2 °F 11% 29.75 in 10.0 mi West 17.3 mph 25.3 mph N/A   Clear
5:15 PM 102.2 °F 39.2 °F 11% 29.75 in 10.0 mi West 17.3 mph 21.9 mph N/A   Clear
5:35 PM 102.2 °F 41.0 °F 12% 29.75 in 10.0 mi West 17.3 mph 21.9 mph N/A   Clear
5:55 PM 100.4 °F 42.8 °F 14% 29.75 in 10.0 mi West 13.8 mph 21.9 mph N/A   Clear
6:15 PM 100.4 °F 42.8 °F 14% 29.75 in 10.0 mi West 15.0 mph 24.2 mph N/A   Clear
6:35 PM 100.4 °F 42.8 °F 14% 29.75 in 10.0 mi West 12.7 mph - N/A   Clear
6:55 PM 98.6 °F 35.6 °F 11% 29.75 in 10.0 mi WNW 12.7 mph 17.3 mph N/A   Clear
7:15 PM 96.8 °F 35.6 °F 12% 29.76 in 10.0 mi West 6.9 mph - N/A   Clear
7:35 PM 96.8 °F 33.8 °F 11% 29.76 in 10.0 mi WNW 5.8 mph - N/A   Clear
7:55 PM 95.0 °F 33.8 °F 12% 29.77 in 10.0 mi West 9.2 mph - N/A   Clear
8:15 PM 93.2 °F 33.8 °F 12% 29.77 in 10.0 mi Calm Calm - N/A   Clear
8:35 PM 89.6 °F 32.0 °F 13% 29.77 in 10.0 mi Calm Calm - N/A   Clear
8:55 PM 89.6 °F 32.0 °F 13% 29.78 in 10.0 mi Calm Calm - N/A   Clear
9:15 PM 87.8 °F 33.8 °F 15% 29.79 in 10.0 mi Calm Calm - N/A   Clear
9:35 PM 86.0 °F 33.8 °F 15% 29.80 in 10.0 mi Calm Calm - N/A   Clear
9:55 PM 84.2 °F 32.0 °F 15% 29.80 in 10.0 mi Calm Calm - N/A   Clear
10:15 PM 82.4 °F 30.2 °F 15% 29.81 in 10.0 mi Calm Calm - N/A   Clear
10:35 PM 84.2 °F 28.4 °F 13% 29.81 in 10.0 mi Calm Calm - N/A   Clear
10:55 PM 82.4 °F 26.6 °F 13% 29.81 in 10.0 mi Calm Calm - N/A   Clear
11:15 PM 84.2 °F 33.8 °F 16% 29.81 in 10.0 mi Calm Calm - N/A   Clear
11:35 PM 82.4 °F 35.6 °F 19% 29.81 in 10.0 mi Calm Calm - N/A   Clear
11:55 PM 80.6 °F 35.6 °F 20% 29.81 in 10.0 mi Calm Calm - N/A   Clear